Wind_Speed
123 125 126 127 127 128 128 128 128 128 128 128 128 128 128 128 128 128 128 128 128 128 128 128 128 129 129 129 129 129 129 129 129 130 129 129 129 129 129 129 129 128 127 128 129 130 130 131 132 132 133 132 132 132 132 132 132 132 132 132 131 131 131
121 123 124 126 127 128 128 129 130 130 130 130 130 130 130 131 131 131 131 131 131 131 131 131 131 131 132 132 132 132 133 133 133 133 133 133 133 133 133 133 132 132 131 131 132 133 134 135 135 135 136 136 135 135 135 135 135 135 134 134 133 133 133
120 122 123 124 125 126 128 129 130 131 131 132 132 132 133 133 133 133 134 133 133 133 134 134 134 134 135 135 136 136 136 136 137 137 136 137 136 136 136 136 136 135 135 135 135 136 138 138 138 138 138 138 138 137 137 137 137 137 137 137 136 136 135
118 119 121 122 124 125 126 128 129 130 131 132 133 133 134 134 135 135 135 135 135 136 136 136 137 137 138 138 139 139 139 139 139 139 139 139 139 138 138 138 138 138 137 137 137 138 139 139 140 140 140 140 140 140 139 139 139 139 139 139 139 139 138
115 116 118 119 121 122 123 125 126 128 129 131 132 133 134 134 135 135 135 136 137 137 138 139 140 141 141 141 141 142 142 142 141 141 141 141 141 141 141 140 141 141 141 140 140 140 140 141 141 141 142 142 142 142 142 141 141 141 141 141 141 141 141
111 112 114 115 117 118 119 121 122 123 125 126 128 129 129 130 130 131 132 133 134 136 137 138 140 141 141 141 142 142 142 142 142 142 141 141 141 141 141 142 142 142 142 142 141 141 141 141 142 142 142 143 143 143 142 142 141 141 141 142 142 142 142
106 108 109 111 112 113 115 116 117 119 120 122 122 122 122 122 123 123 124 125 127 129 130 132 133 133 134 135 136 136 137 137 137 138 138 138 139 139 139 139 140 140 141 140 140 140 140 140 140 140 140 141 141 141 141 141 140 140 140 141 141 141 141
103 105 106 107 108 109 111 112 114 115 116 117 117 116 116 117 118 118 119 121 122 123 124 125 125 126 127 128 129 129 130 131 131 132 132 133 134 134 135 135 136 136 136 136 136 135 135 135 135 136 136 137 137 137 137 137 136 135 135 135 135 135 135
100 101 102 103 104 106 107 108 109 111 111 112 112 112 113 114 115 116 117 118 119 120 120 121 121 122 123 124 125 125 126 127 127 127 127 128 129 129 129 130 130 130 130 130 129 129 129 129 129 130 131 131 131 131 130 130 129 129 128 128 127 127 128
96 97 98 99 100 101 102 103 104 105 106 107 108 109 110 111 112 113 114 114 115 115 116 117 117 118 119 119 120 121 121 122 122 122 122 123 123 123 123 124 124 124 124 124 123 123 123 123 124 125 125 125 125 125 124 123 123 123 123 122 122 122 123
93 94 94 95 96 97 97 98 99 100 102 103 104 105 106 106 107 108 108 109 110 110 111 111 112 112 113 114 114 115 115 116 116 116 116 116 116 117 117 118 118 118 118 118 118 117 117 118 118 119 120 120 120 120 120 119 119 120 120 120 120 121 122
89 89 90 90 91 92 93 94 95 96 97 98 99 100 101 101 102 102 103 103 104 104 105 105 106 106 107 108 108 108 108 108 108 108 109 109 110 110 111 112 113 113 113 113 113 112 113 114 115 116 117 118 119 119 119 119 120 120 121 122 122 122 122
82 82 83 84 85 86 87 88 89 90 91 92 93 93 94 95 95 95 96 97 98 98 99 100 100 101 101 102 102 102 102 102 102 103 104 105 105 106 107 108 109 110 111 110 110 110 111 114 115 116 117 119 120 120 121 121 122 123 123 123 122 122 123
78 78 79 79 80 80 81 82 83 83 84 84 85 85 86 87 88 89 90 91 92 93 93 94 94 95 95 96 97 98 98 99 99 100 102 103 104 105 107 108 110 111 111 111 111 111 113 115 117 118 119 121 122 122 122 123 123 123 123 123 123 123 124
76 76 76 76 76 77 77 77 77 78 78 79 79 80 81 82 83 84 85 86 87 88 89 90 91 92 93 94 96 97 98 99 100 101 103 104 106 107 109 110 112 113 113 113 114 115 115 117 118 119 120 122 122 123 123 123 124 124 124 125 125 126 127
74 74 74 75 75 75 75 75 76 76 77 77 77 78 78 79 80 82 83 85 86 87 89 90 92 93 95 96 98 99 101 101 102 103 104 106 108 109 110 112 113 114 114 115 116 116 117 118 119 120 121 122 122 123 123 124 125 126 127 128 129 130 131
74 74 74 74 74 75 75 75 75 76 76 77 77 77 78 79 81 83 84 86 88 90 91 93 95 96 97 98 100 101 103 103 104 104 105 107 108 109 111 112 113 113 115 117 118 118 119 120 121 122 123 124 125 125 126 127 128 130 131 132 133 133 135
73 73 73 73 73 74 74 74 75 76 77 77 78 79 80 82 84 86 88 90 91 93 95 96 97 98 99 100 101 103 104 105 105 106 107 108 109 110 112 113 114 116 118 120 122 123 124 124 125 126 127 128 129 129 129 130 131 133 134 135 136 137 138
71 71 72 73 73 74 75 75 76 77 78 80 81 82 84 85 87 89 91 92 94 96 97 98 99 100 102 102 103 105 106 107 108 108 109 110 112 113 115 117 119 121 123 126 128 129 129 129 130 130 131 132 132 133 133 133 134 136 137 138 139 140 141
71 72 73 74 75 76 77 78 79 80 81 83 84 85 86 88 90 91 93 95 96 98 99 101 102 103 105 106 107 108 110 111 112 112 113 115 116 118 120 122 124 127 129 130 132 133 134 134 135 134 134 135 136 137 137 138 139 139 140 141 142 144 145
73 75 76 77 77 78 79 81 82 83 84 85 86 88 89 91 93 94 95 97 99 101 102 104 105 107 108 110 112 113 115 116 117 118 119 120 122 123 125 127 129 131 132 133 134 135 137 138 139 139 139 139 140 141 141 142 143 143 144 144 146 147 147
75 77 78 79 80 81 82 84 85 87 88 89 90 91 93 94 96 97 99 100 103 105 107 108 110 112 114 116 117 119 121 122 123 124 125 126 126 127 129 131 132 133 135 136 137 139 140 142 143 143 143 143 143 144 145 146 146 146 146 146 145 144 143
77 79 80 82 83 84 86 88 89 91 92 93 94 95 97 99 100 102 104 105 107 109 111 113 115 117 119 121 123 125 126 126 127 128 129 129 130 131 132 134 135 136 138 139 141 143 144 145 146 146 147 147 147 147 147 147 146 145 143 141 138 136 133
80 82 83 85 87 89 90 92 94 95 97 98 99 101 102 103 105 107 108 110 112 114 115 117 119 121 124 126 127 128 128 128 129 130 131 132 134 135 137 138 139 140 142 143 144 146 147 148 149 149 149 148 147 146 144 142 140 136 134 131 129 127 125
84 86 88 90 92 94 96 97 99 100 102 102 104 105 107 108 109 111 113 114 116 118 119 121 123 125 127 129 130 130 130 131 132 133 135 137 138 139 141 142 143 144 145 147 148 149 150 150 149 148 146 144 141 139 136 133 130 128 125 123 121 119 117
89 91 93 95 97 99 101 103 104 105 106 106 108 109 111 112 114 116 118 119 120 121 122 124 126 128 130 132 132 133 133 134 135 137 139 141 142 143 145 146 147 148 149 149 149 148 147 146 143 141 138 135 132 130 127 125 123 121 118 115 113 112 110
93 95 96 98 100 102 104 106 108 109 110 110 111 113 115 117 119 120 122 123 124 125 126 128 130 132 134 135 136 136 137 137 138 140 142 144 146 147 149 150 149 148 147 146 144 142 140 137 135 132 129 127 125 123 120 118 116 114 112 109 107 106 104
95 97 98 100 102 104 106 109 111 113 113 114 116 118 119 121 122 123 125 127 129 130 132 133 135 137 138 139 140 140 140 140 141 143 145 146 148 148 148 147 145 143 141 139 137 135 132 129 127 125 123 121 119 117 115 112 110 108 106 103 101 99 97
98 100 102 103 105 107 110 112 115 116 117 118 120 122 123 125 126 128 130 132 133 135 136 137 139 141 142 143 143 144 145 145 146 146 146 145 144 143 142 141 139 137 135 132 130 128 125 123 122 120 118 116 114 111 109 106 104 102 100 97 95 93 91
102 104 106 107 109 112 114 116 117 119 120 122 124 126 128 130 131 132 134 135 136 137 138 140 142 143 145 146 147 147 147 146 145 144 142 141 139 138 137 136 134 131 129 126 124 122 121 119 117 115 112 110 108 105 102 100 98 95 93 91 89 87 85
106 108 110 112 113 115 118 119 121 122 124 126 128 130 131 132 133 134 136 137 138 140 141 143 144 146 146 146 145 144 142 141 140 139 139 137 136 134 132 130 128 126 124 122 120 118 116 114 111 109 106 104 101 98 95 93 91 89 88 86 84 82 80
110 112 113 115 117 119 121 123 124 125 127 128 130 132 134 135 136 137 139 141 142 142 143 144 144 144 143 142 141 139 138 137 137 136 135 133 131 128 126 125 123 120 119 116 114 112 110 108 105 103 100 97 95 92 89 87 86 84 83 81 80 78 76
113 115 117 118 120 123 124 125 126 127 129 131 133 135 136 137 139 140 142 142 142 141 141 141 141 140 140 139 138 136 135 134 132 131 129 127 125 123 121 119 116 114 112 110 108 106 104 101 98 96 94 91 89 87 84 83 81 80 79 78 76 74 73
118 120 122 123 125 127 128 128 129 130 132 134 136 138 139 140 140 141 140 140 139 138 138 138 138 138 137 136 134 132 130 128 126 124 122 121 119 117 115 112 109 107 105 103 102 100 97 95 92 90 88 86 84 82 80 79 78 77 76 75 73 71 70
123 126 128 130 131 132 132 132 133 134 136 138 139 139 139 139 138 137 137 137 137 137 137 136 135 134 132 130 128 126 124 122 120 118 116 114 112 110 108 105 103 100 99 97 96 94 92 90 87 85 84 82 80 78 77 75 74 74 73 72 70 69 66
126 129 132 134 136 137 136 136 137 137 138 139 139 138 137 136 135 135 135 136 136 135 133 132 129 127 125 123 121 119 117 115 113 111 109 107 105 103 101 98 96 94 93 92 90 88 87 85 83 82 80 79 77 75 74 72 71 71 70 69 67 66 64
Wind_Direction
257 258 258 258 259 259 260 260 261 261 261 261 262 262 263 263 264 265 265 266 266 267 267 268 269 269 270 271 271 271 272 272 272 272 273 273 273 273 273 273 273 273 273 273 274 274 275 275 276 277 278 278 279 279 279 279 280 280 280 281 281 281 282
259 259 259 259 260 260 261 261 261 261 262 262 262 263 263 264 264 265 266 266 267 267 268 268 269 269 270 270 271 271 272 272 273 273 273 273 274 274 274 274 274 274 274 274 275 275 276 276 277 278 278 279 279 280 280 280 280 281 281 281 281 281 281
261 261 261 261 261 262 262 262 262 262 262 263 263 263 264 264 265 265 266 267 267 267 268 268 269 269 270 270 271 272 272 273 273 273 274 274 274 275 275 275 276 276 276 276 276 277 277 278 278 278 279 279 279 280 280 280 280 280 280 280 280 280 281
262 262 263 263 263 263 263 264 264 264 264 264 264 264 264 265 265 266 266 267 268 268 269 269 269 270 270 271 271 272 272 272 273 273 274 274 275 275 275 275 276 276 276 276 276 277 277 277 278 278 278 278 279 279 279 279 279 279 280 280 280 281 281
262 263 264 264 264 265 265 265 266 266 266 266 266 266 266 266 266 267 267 268 269 269 269 270 270 270 270 271 271 271 272 272 272 273 273 274 274 274 275 275 275 275 275 275 275 276 276 276 277 277 277 277 278 278 278 278 279 279 279 280 280 280 280
264 264 265 265 266 266 266 267 267 267 268 268 268 268 268 269 269 269 269 270 270 270 270 270 270 270 271 271 271 272 272 272 273 273 273 274 274 274 274 275 275 275 275 275 275 275 276 276 276 276 276 277 277 277 278 278 278 279 279 279 279 280 280
265 265 266 266 267 268 268 268 269 269 269 270 270 271 271 272 272 271 271 271 271 270 270 270 271 271 271 272 272 272 272 273 273 273 273 273 273 274 274 274 274 274 275 275 275 275 275 275 276 276 276 276 277 277 277 278 278 278 278 279 279 279 279
267 267 268 268 268 269 269 269 270 270 271 271 272 272 272 272 272 271 271 271 270 270 270 271 271 271 272 272 272 272 272 272 273 273 273 273 273 274 274 274 274 274 275 275 275 275 276 276 276 276 276 277 277 277 278 278 278 278 278 279 279 279 279
268 268 269 269 269 269 269 270 270 270 271 271 271 271 271 270 270 270 270 270 270 270 271 271 271 271 272 272 272 272 272 273 273 273 273 274 274 274 274 275 275 275 275 276 276 276 277 277 277 277 278 278 278 278 278 278 279 279 278 278 279 279 279
268 268 269 269 269 269 269 270 270 270 270 270 270 270 270 270 270 270 270 270 271 271 271 271 271 272 272 272 272 272 273 273 273 273 273 274 274 274 275 275 275 276 276 276 277 277 278 278 278 278 278 278 278 278 278 278 278 278 278 278 278 278 278
268 268 268 269 269 269 269 269 269 269 269 269 270 270 270 270 271 271 271 271 272 272 272 272 272 272 272 273 273 273 273 273 274 274 274 274 274 274 275 275 275 276 276 276 277 277 277 277 277 277 277 277 277 277 277 278 278 278 278 278 278 278 279
268 269 269 268 268 268 268 267 268 268 268 268 269 269 270 270 271 271 271 271 271 272 272 272 272 272 273 273 273 273 273 274 274 274 274 274 275 275 275 275 275 275 276 276 276 277 277 277 277 277 277 277 278 278 278 278 278 278 278 279 279 279 279
269 269 268 268 267 267 267 267 267 267 268 268 269 269 269 270 270 270 270 271 271 271 271 271 272 272 273 273 273 273 273 274 274 274 274 275 275 275 275 275 275 276 276 276 276 277 277 277 278 278 278 278 278 278 278 279 279 279 279 279 279 279 280
269 268 268 268 268 268 267 267 268 268 268 268 268 268 269 269 269 270 270 270 270 271 271 272 272 273 273 274 274 274 274 274 275 275 275 276 276 276 276 277 277 277 277 278 278 278 278 278 278 278 278 278 278 278 279 279 279 279 280 280 280 280 281
268 268 268 268 267 267 267 267 267 267 267 267 267 268 268 269 269 270 270 271 272 272 273 273 274 274 275 275 276 276 276 276 276 276 277 277 277 277 277 278 278 278 278 278 278 278 278 277 277 278 278 278 279 279 280 280 280 281 281 281 282 282 282
267 267 267 267 267 267 267 267 267 268 268 268 269 270 270 271 272 273 274 274 275 275 275 275 275 275 276 276 276 276 276 276 276 277 277 277 277 277 277 277 278 278 279 279 279 279 279 279 279 279 279 280 280 280 281 282 282 283 283 283 283 283 283
267 267 267 268 268 268 269 269 270 271 272 272 273 274 275 275 276 276 276 276 276 276 275 275 275 275 275 276 276 276 276 276 277 277 277 277 278 278 278 279 279 280 281 281 281 281 281 281 281 282 282 282 282 282 283 283 284 284 284 284 284 284 284
269 270 270 271 272 273 273 274 274 275 275 276 276 276 276 276 276 276 276 276 276 276 276 276 276 276 276 277 277 278 278 278 279 279 279 279 280 280 281 281 282 283 283 284 284 284 284 284 284 284 284 284 284 284 284 284 285 285 285 285 285 284 284
273 273 274 275 276 276 277 277 276 276 276 276 276 276 276 276 276 276 276 276 277 277 278 278 279 279 279 280 280 280 280 281 281 281 281 282 282 283 284 284 285 285 285 286 286 286 285 285 285 285 285 285 285 285 285 285 285 285 285 285 285 285 285
275 275 275 275 275 275 275 275 275 275 276 276 276 277 277 277 277 278 278 279 280 280 280 281 281 281 282 282 282 282 282 283 283 283 284 284 285 285 286 286 286 286 286 286 286 286 286 286 286 286 286 286 286 286 286 286 286 285 286 286 286 286 286
274 274 274 274 275 275 276 276 277 277 278 278 278 279 279 280 280 280 281 281 282 282 282 283 283 283 284 284 285 285 285 285 285 286 286 286 286 286 286 286 286 285 285 285 286 286 287 287 287 287 287 287 287 287 286 286 287 287 287 287 287 286 286
276 276 277 278 278 279 279 280 280 280 280 281 281 281 281 282 282 282 283 283 284 284 284 285 285 286 286 286 286 286 286 286 286 286 286 286 286 285 285 285 285 285 286 286 287 287 287 287 287 287 287 287 287 287 287 287 288 288 287 287 287 286 286
279 280 281 281 282 282 282 282 282 282 283 283 283 283 283 284 284 284 284 285 285 285 285 286 286 286 286 286 286 285 285 285 285 285 285 285 286 286 286 286 286 287 287 287 288 288 287 287 288 288 288 288 288 288 288 288 288 288 287 287 286 286 285
281 282 283 283 284 284 284 284 284 284 284 284 284 284 285 285 285 285 285 285 285 285 286 286 286 286 285 285 284 284 284 285 285 286 286 287 287 287 287 288 288 288 288 288 288 288 288 288 288 288 289 289 289 289 288 288 288 287 287 286 286 286 285
284 284 285 285 285 285 285 285 285 285 285 285 285 285 285 286 286 286 285 285 285 285 285 285 285 284 284 284 284 285 285 286 287 287 288 288 288 288 288 288 288 288 288 288 288 289 289 289 289 289 289 289 289 289 288 288 288 287 287 287 286 286 285
285 285 285 285 285 285 285 285 285 285 285 286 286 286 286 286 286 286 285 285 285 284 284 284 284 284 284 285 286 286 287 288 288 288 289 289 289 289 289 289 289 289 289 289 289 289 289 289 289 289 289 289 289 289 289 289 289 288 288 287 287 286 286
285 285 285 285 285 285 285 285 286 286 286 286 287 286 286 286 285 285 285 285 285 285 285 285 285 286 286 286 287 287 288 288 289 289 289 289 289 289 289 289 289 289 289 290 290 290 290 290 290 290 290 290 290 290 290 289 289 289 288 288 287 287 286
284 284 284 284 285 285 285 286 286 286 286 286 286 286 285 285 285 285 286 286 286 286 287 287 287 287 287 288 288 289 289 289 289 289 289 289 289 289 290 290 290 290 290 291 291 291 291 291 291 291 291 291 291 290 290 290 289 289 288 288 287 286 286
283 283 283 284 284 284 285 285 285 285 286 286 286 286 286 286 286 286 287 287 287 287 287 288 288 288 288 289 289 289 290 290 290 290 290 290 290 290 291 291 291 292 292 292 292 292 292 292 292 291 291 291 291 290 290 290 289 288 288 287 287 286 285
282 283 283 283 283 284 284 284 285 285 286 286 286 286 286 286 286 286 287 287 287 287 288 288 288 288 289 289 289 290 290 290 291 291 291 291 291 292 292 292 293 293 293 293 293 293 292 292 292 291 291 291 290 290 290 289 289 288 288 287 286 286 285
282 282 283 283 283 284 284 284 285 285 286 286 286 286 286 286 286 287 287 287 287 288 288 288 289 289 289 289 290 290 291 291 292 292 292 293 293 293 293 293 293 293 293 293 293 292 292 292 291 291 291 291 290 290 290 289 289 288 288 287 286 286 285
282 282 283 283 283 284 284 285 285 286 286 286 286 286 286 287 287 287 288 288 288 288 289 289 289 290 290 290 291 292 292 293 293 293 293 293 293 293 293 293 293 293 293 292 292 292 291 291 291 291 291 290 290 290 290 289 289 288 288 287 286 286 285
282 283 283 283 284 284 285 285 286 286 287 287 287 287 287 287 288 288 288 289 289 290 290 290 291 291 292 292 293 293 293 293 293 293 293 293 293 292 292 292 292 292 292 292 291 291 291 291 291 291 291 290 290 290 290 289 289 288 287 287 286 285 284
284 284 285 285 286 286 286 286 287 287 287 287 287 287 288 288 289 289 290 290 291 291 291 292 292 292 293 293 293 293 293 293 293 293 292 292 292 292 292 292 292 292 291 291 291 291 291 291 291 291 290 290 290 290 289 289 288 288 287 286 285 285 284
286 286 287 287 287 287 287 288 288 288 289 289 289 289 289 290 290 291 291 292 292 292 292 292 293 293 293 293 293 293 292 292 292 292 292 292 291 291 291 291 292 291 291 291 291 291 291 291 290 290 290 290 289 289 289 288 288 287 286 286 285 284 283
286 287 288 288 288 288 289 289 290 290 290 290 290 290 291 291 291 292 292 292 292 293 293 293 293 293 293 292 292 292 292 292 292 291 291 291 291 291 291 291 292 291 291 291 291 291 290 290 290 290 290 289 289 289 288 288 287 286 285 285 284 284 283
Height
10384 10384 10384 10384 10384 10384 10384 10385 10385 10385 10386 10387 10387 10387 10386 10385 10385 10384 10384 10384 10383 10383 10382 10381 10379 10378 10376 10375 10374 10372 10371 10370 10368 10367 10366 10365 10364 10363 10362 10363 10364 10365 10366 10361 10355 10352 10350 10345 10342 10340 10338 10337 10338 10336 10334 10333 10332 10331 10331 10330 10328 10326 10324
10369 10369 10370 10370 10370 10370 10370 10370 10370 10370 10371 10372 10372 10372 10371 10371 10370 10370 10370 10369 10369 10368 10367 10366 10364 10362 10360 10358 10357 10356 10354 10353 10351 10350 10349 10347 10346 10345 10343 10343 10344 10344 10345 10344 10339 10334 10331 10328 10325 10324 10321 10319 10319 10318 10316 10314 10312 10312 10311 10311 10310 10309 10308
10355 10355 10355 10355 10355 10355 10355 10355 10355 10355 10355 10356 10357 10357 10356 10356 10355 10355 10355 10354 10353 10352 10351 10350 10348 10346 10343 10341 10340 10339 10337 10336 10334 10332 10331 10329 10327 10327 10325 10323 10323 10323 10323 10324 10321 10315 10312 10309 10306 10304 10302 10300 10300 10299 10297 10296 10294 10293 10292 10290 10290 10290 10290
10341 10341 10341 10341 10341 10341 10340 10340 10340 10339 10340 10340 10341 10341 10341 10341 10340 10340 10339 10338 10337 10336 10334 10333 10330 10327 10325 10324 10323 10321 10320 10319 10317 10315 10313 10311 10309 10308 10307 10304 10303 10302 10302 10303 10303 10299 10294 10291 10288 10285 10283 10281 10280 10279 10278 10277 10277 10276 10274 10271 10268 10269 10269
10328 10328 10327 10327 10327 10326 10326 10326 10325 10325 10324 10324 10324 10324 10324 10324 10324 10325 10324 10322 10321 10319 10316 10314 10311 10309 10307 10306 10305 10303 10302 10300 10299 10297 10295 10293 10291 10289 10287 10285 10283 10281 10281 10282 10283 10282 10278 10274 10270 10267 10264 10261 10260 10260 10259 10258 10258 10257 10255 10252 10249 10247 10247
10314 10314 10314 10313 10313 10313 10312 10311 10310 10310 10309 10308 10308 10307 10308 10308 10309 10308 10306 10304 10302 10300 10297 10294 10292 10291 10290 10288 10286 10284 10282 10282 10280 10279 10277 10274 10272 10269 10267 10265 10263 10261 10261 10261 10261 10261 10259 10256 10252 10248 10245 10241 10238 10239 10239 10238 10239 10238 10235 10232 10230 10227 10225
10301 10301 10300 10300 10299 10299 10298 10297 10295 10294 10293 10292 10292 10293 10293 10292 10291 10289 10287 10285 10282 10280 10277 10276 10275 10273 10272 10270 10268 10265 10263 10262 10261 10259 10257 10254 10252 10250 10248 10246 10244 10241 10240 10240 10241 10241 10239 10237 10234 10229 10225 10221 10219 10219 10219 10218 10219 10219 10215 10211 10210 10207 10204
10288 10287 10287 10287 10286 10285 10283 10282 10281 10280 10279 10278 10278 10278 10277 10274 10272 10269 10267 10265 10263 10261 10259 10258 10257 10255 10254 10251 10249 10247 10244 10243 10242 10240 10238 10235 10233 10231 10229 10226 10224 10222 10221 10220 10220 10220 10218 10216 10214 10209 10204 10202 10200 10199 10199 10197 10197 10198 10196 10192 10190 10187 10182
10275 10274 10274 10273 10272 10271 10269 10268 10267 10266 10265 10264 10263 10261 10258 10256 10253 10251 10249 10247 10246 10244 10243 10241 10240 10237 10235 10233 10231 10228 10226 10224 10223 10222 10220 10217 10214 10212 10210 10208 10205 10203 10202 10201 10200 10200 10198 10196 10193 10188 10184 10183 10181 10179 10179 10179 10177 10176 10175 10173 10172 10169 10163
10262 10261 10260 10259 10258 10257 10255 10254 10253 10251 10250 10248 10247 10244 10242 10239 10237 10235 10234 10232 10230 10229 10227 10225 10223 10220 10218 10215 10213 10211 10209 10207 10206 10205 10203 10201 10198 10195 10193 10190 10188 10186 10184 10183 10183 10182 10180 10178 10174 10169 10165 10164 10162 10159 10158 10160 10159 10156 10154 10153 10153 10152 10146
10249 10248 10247 10246 10245 10244 10242 10241 10239 10237 10236 10234 10232 10230 10227 10225 10223 10221 10220 10218 10215 10213 10211 10209 10207 10204 10201 10199 10197 10195 10193 10191 10190 10188 10186 10185 10182 10179 10176 10174 10172 10170 10167 10166 10166 10167 10164 10160 10156 10152 10147 10145 10143 10140 10139 10140 10139 10136 10135 10134 10133 10133 10130
10237 10236 10235 10234 10232 10231 10229 10227 10226 10224 10222 10221 10219 10217 10215 10212 10210 10208 10206 10204 10202 10199 10196 10194 10191 10189 10186 10183 10181 10180 10178 10176 10174 10171 10169 10168 10165 10163 10160 10157 10155 10153 10151 10150 10151 10152 10149 10142 10138 10135 10130 10125 10123 10122 10121 10120 10119 10117 10116 10115 10115 10115 10115
10226 10224 10223 10221 10220 10219 10217 10215 10214 10212 10211 10209 10208 10206 10203 10200 10198 10196 10193 10190 10188 10185 10182 10180 10177 10175 10171 10169 10166 10165 10163 10162 10159 10156 10154 10152 10149 10147 10144 10141 10138 10135 10134 10135 10136 10136 10133 10125 10118 10117 10114 10108 10104 10104 10104 10102 10100 10098 10096 10096 10097 10097 10096
10215 10213 10212 10211 10209 10208 10206 10204 10203 10202 10200 10198 10197 10194 10192 10189 10186 10183 10180 10177 10175 10172 10169 10167 10164 10162 10158 10155 10152 10150 10149 10147 10145 10143 10140 10137 10134 10132 10129 10125 10121 10118 10117 10119 10119 10118 10115 10109 10102 10099 10097 10091 10086 10086 10086 10084 10082 10080 10078 10077 10078 10076 10073
10204 10203 10202 10200 10199 10197 10196 10194 10192 10190 10189 10187 10185 10183 10180 10178 10175 10171 10168 10165 10162 10160 10157 10153 10151 10148 10145 10142 10139 10136 10134 10133 10131 10129 10127 10123 10119 10117 10114 10110 10105 10102 10101 10102 10101 10098 10095 10092 10087 10082 10079 10075 10070 10069 10068 10065 10063 10061 10059 10057 10057 10055 10050
10195 10193 10191 10189 10188 10186 10185 10184 10181 10179 10178 10176 10174 10172 10169 10166 10163 10159 10156 10152 10149 10147 10143 10140 10137 10135 10132 10129 10125 10122 10120 10118 10117 10116 10113 10109 10106 10102 10098 10094 10090 10087 10085 10082 10080 10079 10076 10073 10069 10064 10060 10057 10053 10052 10050 10046 10043 10041 10037 10035 10035 10033 10027
10185 10183 10181 10179 10177 10175 10174 10174 10171 10168 10166 10165 10163 10161 10158 10155 10151 10147 10143 10140 10136 10133 10130 10127 10124 10122 10119 10116 10112 10109 10107 10104 10102 10101 10098 10095 10091 10087 10082 10078 10074 10073 10068 10061 10057 10057 10055 10052 10047 10043 10039 10036 10033 10033 10031 10028 10024 10020 10015 10012 10012 10008 10004
10175 10173 10171 10168 10167 10165 10163 10162 10161 10158 10155 10153 10152 10149 10146 10143 10139 10135 10131 10128 10124 10120 10117 10113 10110 10107 10105 10103 10099 10095 10092 10089 10087 10086 10083 10079 10076 10072 10066 10062 10058 10056 10050 10042 10036 10033 10031 10029 10027 10022 10018 10015 10012 10011 10011 10008 10005 10001 9994 9990 9987 9983 9980
10164 10162 10160 10158 10156 10155 10152 10151 10149 10147 10144 10142 10140 10138 10135 10131 10127 10123 10119 10115 10111 10106 10103 10099 10096 10093 10089 10087 10085 10080 10076 10073 10070 10069 10067 10063 10059 10056 10050 10045 10041 10036 10029 10023 10017 10011 10008 10006 10004 10001 9998 9994 9991 9989 9988 9985 9982 9978 9973 9968 9964 9959 9955
10153 10151 10150 10147 10146 10144 10142 10139 10137 10135 10133 10131 10128 10125 10122 10117 10113 10110 10106 10102 10097 10092 10089 10085 10081 10078 10074 10071 10068 10064 10059 10056 10053 10051 10050 10046 10041 10038 10033 10027 10022 10017 10009 10003 9998 9993 9988 9983 9979 9978 9977 9974 9970 9966 9963 9961 9958 9954 9950 9946 9941 9935 9929
10143 10140 10139 10137 10135 10133 10130 10127 10124 10121 10120 10117 10114 10111 10108 10103 10099 10096 10092 10088 10083 10078 10074 10071 10066 10062 10059 10054 10050 10046 10041 10037 10034 10032 10030 10027 10024 10020 10015 10009 10003 9997 9990 9984 9979 9974 9969 9962 9956 9954 9954 9952 9948 9944 9939 9935 9932 9929 9925 9921 9916 9909 9902
10131 10128 10126 10124 10122 10119 10117 10113 10110 10106 10104 10102 10100 10097 10094 10089 10085 10082 10078 10074 10069 10064 10059 10055 10051 10046 10042 10037 10032 10027 10023 10019 10016 10013 10010 10007 10004 10001 9995 9988 9983 9977 9971 9966 9960 9954 9948 9941 9936 9931 9929 9927 9925 9921 9916 9911 9907 9903 9898 9894 9888 9882 9876
10119 10115 10112 10109 10107 10105 10102 10098 10095 10092 10089 10087 10085 10082 10078 10075 10071 10067 10062 10059 10054 10049 10044 10040 10035 10029 10024 10018 10012 10008 10005 10003 9999 9994 9990 9987 9983 9979 9973 9967 9961 9956 9951 9946 9940 9933 9926 9920 9915 9910 9906 9902 9899 9896 9891 9886 9881 9877 9871 9866 9861 9856 9851
10106 10102 10098 10095 10092 10089 10086 10083 10080 10076 10073 10071 10070 10066 10062 10060 10056 10051 10046 10042 10038 10033 10029 10025 10019 10012 10006 9999 9993 9990 9988 9986 9981 9975 9971 9966 9962 9956 9950 9944 9939 9934 9929 9924 9918 9911 9904 9898 9892 9887 9883 9879 9875 9870 9865 9860 9856 9851 9846 9841 9837 9831 9826
10092 10088 10085 10081 10077 10073 10069 10067 10063 10060 10058 10056 10054 10050 10046 10043 10039 10033 10029 10025 10021 10017 10013 10008 10002 9994 9986 9979 9974 9972 9971 9968 9962 9956 9951 9945 9939 9933 9927 9922 9916 9911 9906 9900 9895 9888 9881 9874 9868 9863 9859 9856 9851 9845 9840 9835 9831 9827 9822 9818 9814 9808 9803
10078 10075 10071 10068 10063 10058 10054 10050 10046 10043 10042 10041 10038 10033 10029 10025 10020 10015 10010 10006 10002 9998 9994 9989 9982 9974 9966 9960 9956 9954 9952 9948 9943 9937 9931 9923 9916 9910 9904 9898 9893 9888 9883 9876 9870 9864 9858 9851 9845 9841 9836 9832 9827 9821 9816 9812 9807 9803 9799 9796 9792 9786 9782
10065 10061 10058 10055 10050 10044 10040 10034 10028 10025 10025 10024 10021 10016 10012 10007 10002 9997 9992 9987 9982 9978 9974 9968 9961 9953 9946 9941 9938 9935 9933 9929 9925 9919 9912 9903 9895 9888 9880 9874 9870 9865 9859 9852 9846 9841 9834 9828 9823 9819 9813 9808 9803 9798 9794 9791 9786 9780 9778 9776 9772 9767 9763
10051 10047 10044 10041 10035 10030 10026 10019 10012 10009 10009 10007 10003 9998 9993 9988 9983 9978 9973 9968 9962 9957 9953 9947 9939 9932 9925 9919 9916 9913 9910 9907 9904 9898 9891 9883 9876 9868 9858 9851 9847 9842 9836 9829 9823 9818 9812 9807 9801 9796 9791 9786 9782 9777 9774 9770 9766 9761 9758 9756 9753 9749 9746
10037 10032 10029 10026 10021 10015 10011 10005 9998 9993 9992 9989 9984 9979 9974 9969 9965 9960 9955 9948 9942 9937 9933 9926 9917 9911 9905 9898 9894 9890 9886 9881 9878 9872 9866 9860 9853 9846 9838 9830 9823 9818 9813 9807 9802 9796 9790 9785 9780 9775 9771 9766 9762 9759 9755 9752 9747 9743 9740 9738 9736 9732 9730
10022 10017 10013 10010 10005 9999 9994 9990 9985 9980 9977 9973 9967 9960 9955 9950 9946 9941 9935 9929 9923 9919 9914 9906 9899 9892 9885 9878 9874 9870 9864 9858 9853 9846 9840 9835 9829 9823 9817 9809 9802 9796 9791 9786 9781 9775 9769 9764 9760 9756 9752 9748 9744 9741 9738 9734 9730 9726 9724 9721 9719 9717 9716
10006 10001 9997 9993 9989 9984 9978 9973 9969 9966 9962 9956 9949 9942 9936 9931 9927 9922 9916 9908 9903 9900 9894 9886 9879 9873 9865 9858 9853 9849 9843 9837 9831 9823 9817 9811 9805 9800 9795 9788 9781 9776 9770 9765 9761 9755 9750 9745 9741 9737 9734 9730 9727 9724 9721 9718 9714 9710 9708 9706 9704 9702 9701
9989 9984 9980 9976 9972 9968 9963 9957 9953 9950 9946 9939 9930 9922 9916 9912 9908 9903 9895 9887 9882 9879 9873 9865 9858 9850 9843 9837 9832 9827 9822 9816 9809 9802 9795 9789 9783 9778 9773 9768 9762 9757 9751 9746 9741 9736 9731 9727 9724 9720 9717 9714 9711 9708 9706 9703 9700 9696 9693 9692 9690 9689 9688
9973 9968 9964 9960 9954 9949 9945 9941 9938 9934 9928 9920 9911 9903 9897 9893 9889 9882 9873 9866 9862 9858 9850 9842 9835 9828 9821 9815 9811 9806 9800 9793 9787 9781 9775 9769 9762 9757 9753 9748 9744 9740 9734 9728 9722 9718 9714 9712 9708 9704 9702 9699 9696 9694 9692 9689 9686 9682 9680 9678 9677 9676 9675
9954 9948 9944 9940 9935 9928 9924 9923 9921 9915 9908 9899 9890 9883 9878 9874 9869 9862 9853 9846 9841 9835 9828 9821 9814 9806 9800 9795 9790 9784 9778 9772 9766 9762 9756 9749 9743 9738 9734 9730 9727 9722 9717 9711 9706 9701 9699 9696 9693 9690 9687 9685 9682 9680 9678 9676 9673 9669 9667 9665 9664 9663 9663
9936 9927 9920 9915 9909 9904 9902 9903 9899 9893 9885 9877 9868 9861 9856 9852 9848 9842 9834 9826 9818 9812 9806 9800 9793 9787 9781 9774 9768 9763 9757 9751 9747 9742 9737 9731 9725 9720 9716 9713 9710 9706 9701 9696 9691 9687 9684 9682 9679 9676 9674 9671 9669 9668 9666 9663 9660 9657 9655 9653 9652 9651 9651
9922 9912 9903 9894 9885 9879 9880 9880 9876 9870 9862 9853 9844 9838 9834 9831 9828 9822 9815 9806 9797 9790 9785 9778 9772 9768 9762 9756 9749 9743 9738 9732 9727 9723 9718 9714 9709 9704 9701 9698 9694 9689 9685 9681 9677 9674 9671 9668 9665 9663 9660 9658 9656 9655 9653 9651 9648 9646 9644 9642 9640 9639 9639